Regional Weather Roundup
Issued by NWS Sioux Falls, SD

Home | Current Version | Previous Version | Graphics & Text | Print | Product List | Glossary On
Versions: 1 2 3 4 5 6 7 8 9 10 11 12 13 14 15 16 17 18 19 20 21 22 23 24 25 26 27 28 29 30 31 32 33 34 35 36 37 38 39 40 41 42 43 44 45 46 47 48 49 50
000
ASUS43 KFSD 171710
RWRFSD

WEATHER ROUNDUP FOR SE SOUTH DAKOTA/SW MINNESOTA/NW IOWA
NATIONAL WEATHER SERVICE SIOUX FALLS SD
1200 PM CDT THU APR 17 2014

NOTE: "FAIR" INDICATES FEW OR NO CLOUDS BELOW 12,000 FEET WITH NO
SIGNIFICANT WEATHER AND OR OBSTRUCTIONS TO VISIBILITY.


SDZ038>040-050-052>070-171800-
SOUTHEAST SOUTH DAKOTA

CITY           SKY/WX    TMP DP  RH WIND       PRES   REMARKS
CHAMBERLAIN      N/A     39  22  50 SE10G17   30.32F
HURON          SUNNY     37  22  54 NE6       30.34S
MADISON        FAIR      32  25  74 NE9       30.32  WCI  24
MITCHELL       SUNNY     42  15  33 NE9       30.34S
SIOUX FALLS    MOSUNNY   34  26  72 NE8       30.33S WCI  27
WINNER         FAIR      42  21  43 SE9G22    30.29F
YANKTON        SUNNY     37  25  60 NE5       30.35S
$$

MNZ071-072-080-081-089-090-097-098-171800-
SOUTHWEST MINNESOTA

CITY           SKY/WX    TMP DP  RH WIND       PRES   REMARKS
FAIRMONT       CLOUDY    30  25  80 NW12G17   30.31F WCI  21
JACKSON        PTSUNNY   32  28  86 N8G17     30.30S WCI  25
LUVERNE        SUNNY     34  28  80 N10G17    30.33S WCI  26
MARSHALL       SUNNY     30  19  64 N10       30.32S WCI  21
MONTEVIDEO     SUNNY     37  25  60 N7        30.33S
PIPESTONE      SUNNY     32  27  80 NE8       30.30S WCI  25
REDWOOD FALLS  SUNNY     31  22  69 NW8       30.32R WCI  23
TRACY          SUNNY     31  23  74 N9        30.32S WCI  23
WINDOM         MOSUNNY   32  28  86 NW13      30.30S WCI  22
WORTHINGTON    PTSUNNY   32  23  69 N14       30.31S WCI  22
$$

IAZ001>003-012>014-020>022-031-032-NEZ013-014-SDZ071-171800-
NORTHWEST IOWA

CITY           SKY/WX    TMP DP  RH WIND       PRES   REMARKS
CHEROKEE       SUNNY     40  28  64 N9G20     30.31F
DENISON        SUNNY     39  27  60 NW8       30.31S
ESTHERVILLE    PTSUNNY   33  29  85 N16       30.29R WCI  23
LE MARS        SUNNY     39  27  60 N10       30.32F
ORANGE CITY      N/A     39  27  60 N9        30.31F
SHELDON        MOSUNNY   36  28  75 N10G20    30.30S
SIOUX CITY     SUNNY     43  25  49 N8        30.33S
SPENCER        PTSUNNY   37  27  67 N16       30.30S
STORM LAKE     SUNNY     37  27  65 N10G18    30.30S
$$

ABBREVIATIONS USED IN REMARKS
   TC - TEMPERATURE IN CELSIUS
  WCI - WIND CHILL INDEX
   HX - HEAT INDEX
  VSB - VISIBILITY




USA.gov is the U.S. government's official web portal to all federal, state and local government web resources and services.